When you browse on this site, cookies collect data to enhance your experience and personalize the content and advertising you see.
Visit our Privacy Policy to learn more. By continuing to use the site, you agree to this use of cookies and data.
  • En España
  • Lista de países
  • Para 7 días
  • Temperatura del agua
  • Mapa Satelital
  • El tiempo en el mapa
  • Informadores
  • user-avatar
    Iniciar sesión

    Tiempo cada hora Mazari Sharif

    Hoy, 21 Noviembre, Miércoles

    Tiempo Temperatura Precipitaciones Viento Presión Humedad
    00:00 +5°C° 0 mm 3 mps 657 mmHg 73%
    01:00 +5°C° 0 mm 3 mps 656 mmHg 73%
    02:00 +5°C° 0 mm 3 mps 656 mmHg 71%
    03:00 +5°C° 0 mm 3 mps 655 mmHg 70%
    04:00 +7°C° 0 mm 3 mps 655 mmHg 68%
    05:00 +7°C° 0 mm 3 mps 655 mmHg 64%
    06:00 +7°C° 0 mm 3 mps 654 mmHg 61%
    07:00 +8°C° 0 mm 3 mps 654 mmHg 57%
    08:00 +9°C° 0 mm 3 mps 654 mmHg 50%
    09:00 +11°C° 0 mm 3 mps 654 mmHg 43%
    10:00 +13°C° 0 mm 3 mps 655 mmHg 36%
    11:00 +14°C° 0 mm 3 mps 654 mmHg 34%
    12:00 +14°C° 0 mm 3 mps 654 mmHg 32%
    13:00 +16°C° 0 mm 3 mps 653 mmHg 31%
    14:00 +14°C° 0.1 mm 3 mps 653 mmHg 36%
    15:00 +14°C° 0.1 mm 2 mps 652 mmHg 41%
    16:00 +12°C° 0.1 mm 2 mps 652 mmHg 45%
    17:00 +12°C° 0.1 mm 2 mps 652 mmHg 45%
    18:00 +12°C° 0.1 mm 2 mps 653 mmHg 45%
    19:00 +11°C° 0.1 mm 3 mps 653 mmHg 44%
    20:00 +12°C° 0.1 mm 2 mps 653 mmHg 47%
    21:00 +10°C° 0.1 mm 2 mps 653 mmHg 50%
    22:00 +9°C° 0.1 mm 2 mps 653 mmHg 53%
    23:00 +9°C° 0.1 mm 2 mps 653 mmHg 57%

    Mañana, 22 Noviembre, Jueves

    Tiempo Temperatura Precipitaciones Viento Presión Humedad
    00:00 +8°C° 0.1 mm 2 mps 653 mmHg 62%
    01:00 +8°C° 0.1 mm 2 mps 654 mmHg 66%
    02:00 +9°C° 0.2 mm 1 mps 654 mmHg 69%
    03:00 +8°C° 0.2 mm 1 mps 654 mmHg 73%
    04:00 +8°C° 0.2 mm 1 mps 654 mmHg 76%
    05:00 +8°C° 0.4 mm 1 mps 655 mmHg 78%
    06:00 +8°C° 0.4 mm 1 mps 655 mmHg 79%
    07:00 +7°C° 0.4 mm 2 mps 655 mmHg 80%
    08:00 +8°C° 0.2 mm 2 mps 656 mmHg 74%
    09:00 +10°C° 0.2 mm 2 mps 656 mmHg 67%
    10:00 +12°C° 0.2 mm 2 mps 657 mmHg 60%
    11:00 +12°C° 0.1 mm 2 mps 657 mmHg 56%
    12:00 +13°C° 0.1 mm 2 mps 657 mmHg 52%
    13:00 +12°C° 0.1 mm 3 mps 656 mmHg 49%
    14:00 +13°C° 0 mm 2 mps 656 mmHg 50%
    15:00 +13°C° 0 mm 2 mps 656 mmHg 52%
    16:00 +12°C° 0 mm 2 mps 656 mmHg 54%
    17:00 +12°C° 0 mm 2 mps 657 mmHg 55%
    18:00 +10°C° 0 mm 2 mps 657 mmHg 56%
    19:00 +9°C° 0 mm 2 mps 657 mmHg 57%
    20:00 +9°C° 0 mm 2 mps 657 mmHg 57%
    21:00 +9°C° 0 mm 2 mps 657 mmHg 56%
    22:00 +9°C° 0 mm 2 mps 657 mmHg 55%
    23:00 +8°C° 0 mm 2 mps 657 mmHg 54%

    Pasado mañana, 23 Noviembre, Viernes

    Tiempo Temperatura Precipitaciones Viento Presión Humedad
    00:00 +8°C° 0 mm 3 mps 657 mmHg 53%
    01:00 +8°C° 0 mm 3 mps 657 mmHg 52%
    02:00 +8°C° 0 mm 3 mps 657 mmHg 52%
    03:00 +8°C° 0 mm 3 mps 657 mmHg 51%
    04:00 +8°C° 0 mm 3 mps 656 mmHg 50%
    05:00 +8°C° 0 mm 3 mps 657 mmHg 49%
    06:00 +8°C° 0 mm 3 mps 657 mmHg 48%
    07:00 +8°C° 0 mm 3 mps 657 mmHg 46%
    08:00 +10°C° 0 mm 3 mps 658 mmHg 41%
    09:00 +13°C° 0 mm 2 mps 659 mmHg 36%
    10:00 +15°C° 0 mm 2 mps 659 mmHg 31%
    11:00 +16°C° 0 mm 2 mps 659 mmHg 29%
    12:00 +17°C° 0 mm 2 mps 659 mmHg 27%
    13:00 +17°C° 0 mm 2 mps 659 mmHg 25%
    14:00 +16°C° 0 mm 2 mps 658 mmHg 27%
    15:00 +16°C° 0 mm 2 mps 658 mmHg 30%
    16:00 +15°C° 0 mm 2 mps 658 mmHg 33%
    17:00 +14°C° 0 mm 2 mps 658 mmHg 33%
    18:00 +13°C° 0 mm 2 mps 658 mmHg 34%
    19:00 +13°C° 0 mm 2 mps 658 mmHg 35%
    20:00 +12°C° 0 mm 2 mps 658 mmHg 35%
    21:00 +12°C° 0 mm 2 mps 658 mmHg 36%
    22:00 +11°C° 0 mm 3 mps 658 mmHg 37%
    23:00 +10°C° 0 mm 3 mps 658 mmHg 37%

    24 Noviembre, Sábado

    Tiempo Temperatura Precipitaciones Viento Presión Humedad
    00:00 +10°C° 0 mm 3 mps 657 mmHg 37%
    01:00 +10°C° 0 mm 3 mps 657 mmHg 37%
    02:00 +10°C° 0 mm 2 mps 657 mmHg 37%
    03:00 +9°C° 0 mm 2 mps 657 mmHg 37%
    04:00 +9°C° 0 mm 2 mps 656 mmHg 37%
    05:00 +9°C° 0 mm 2 mps 657 mmHg 36%
    06:00 +10°C° 0 mm 2 mps 657 mmHg 35%
    07:00 +10°C° 0 mm 2 mps 657 mmHg 34%
    08:00 +13°C° 0 mm 2 mps 658 mmHg 30%
    09:00 +15°C° 0 mm 2 mps 659 mmHg 26%
    10:00 +18°C° 0 mm 2 mps 660 mmHg 22%
    11:00 +18°C° 0 mm 3 mps 660 mmHg 22%
    12:00 +18°C° 0 mm 3 mps 660 mmHg 23%
    13:00 +18°C° 0 mm 4 mps 660 mmHg 23%
    14:00 +15°C° 0 mm 4 mps 660 mmHg 30%
    15:00 +13°C° 0 mm 5 mps 660 mmHg 38%
    16:00 +12°C° 0 mm 5 mps 660 mmHg 45%
    17:00 +10°C° 0 mm 5 mps 661 mmHg 51%
    18:00 +10°C° 0 mm 4 mps 661 mmHg 57%
    19:00 +8°C° 0 mm 4 mps 662 mmHg 64%
    20:00 +7°C° 0 mm 4 mps 662 mmHg 67%
    21:00 +7°C° 0 mm 4 mps 662 mmHg 71%
    22:00 +7°C° 0 mm 3 mps 663 mmHg 75%
    23:00 +7°C° 0 mm 3 mps 662 mmHg 78%

    25 Noviembre, Domingo

    Tiempo Temperatura Precipitaciones Viento Presión Humedad
    00:00 +5°C° 0 mm 3 mps 662 mmHg 80%
    01:00 +6°C° 0 mm 2 mps 662 mmHg 83%
    02:00 +5°C° 0 mm 2 mps 662 mmHg 83%
    03:00 +5°C° 0 mm 2 mps 662 mmHg 83%
    04:00 +6°C° 0 mm 1 mps 661 mmHg 83%
    05:00 +6°C° 0 mm 1 mps 661 mmHg 81%
    06:00 +5°C° 0 mm 1 mps 661 mmHg 79%
    07:00 +5°C° 0 mm 1 mps 662 mmHg 76%
    08:00 +6°C° 0 mm 1 mps 661 mmHg 70%
    09:00 +7°C° 0 mm 2 mps 661 mmHg 64%
    10:00 +8°C° 0 mm 2 mps 661 mmHg 58%
    11:00 +9°C° 0 mm 2 mps 661 mmHg 55%
    12:00 +9°C° 0 mm 2 mps 660 mmHg 52%
    13:00 +10°C° 0 mm 3 mps 659 mmHg 49%
    14:00 +10°C° 0 mm 2 mps 659 mmHg 51%
    15:00 +10°C° 0 mm 2 mps 658 mmHg 54%
    16:00 +9°C° 0 mm 2 mps 658 mmHg 57%
    17:00 +9°C° 0 mm 2 mps 658 mmHg 59%
    18:00 +9°C° 0 mm 1 mps 658 mmHg 62%
    19:00 +9°C° 0 mm 1 mps 657 mmHg 65%
    20:00 +9°C° 0 mm 1 mps 657 mmHg 65%
    21:00 +9°C° 0 mm 1 mps 657 mmHg 64%
    22:00 +9°C° 0 mm 1 mps 657 mmHg 64%
    23:00 +9°C° 0 mm 1 mps 656 mmHg 63%

    26 Noviembre, Lunes

    Tiempo Temperatura Precipitaciones Viento Presión Humedad
    00:00 +8°C° 0 mm 2 mps 656 mmHg 61%
    01:00 +8°C° 0 mm 2 mps 655 mmHg 59%
    02:00 +8°C° 0 mm 2 mps 655 mmHg 58%
    03:00 +8°C° 0 mm 2 mps 654 mmHg 56%
    04:00 +8°C° 0 mm 2 mps 654 mmHg 54%
    05:00 +8°C° 0 mm 2 mps 654 mmHg 52%
    06:00 +9°C° 0 mm 3 mps 654 mmHg 50%
    07:00 +9°C° 0 mm 3 mps 654 mmHg 48%
    08:00 +11°C° 0 mm 3 mps 654 mmHg 42%
    09:00 +14°C° 0 mm 3 mps 655 mmHg 36%
    10:00 +17°C° 0 mm 2 mps 655 mmHg 31%
    11:00 +18°C° 0 mm 3 mps 654 mmHg 29%
    12:00 +18°C° 0 mm 3 mps 653 mmHg 28%
    13:00 +19°C° 0 mm 3 mps 653 mmHg 26%
    14:00 +18°C° 0 mm 2 mps 652 mmHg 29%
    15:00 +17°C° 0 mm 2 mps 652 mmHg 33%
    16:00 +16°C° 0 mm 2 mps 651 mmHg 36%
    17:00 +15°C° 0 mm 2 mps 652 mmHg 40%
    18:00 +13°C° 0 mm 3 mps 652 mmHg 43%
    19:00 +12°C° 0 mm 4 mps 652 mmHg 47%
    20:00 +11°C° 0 mm 3 mps 653 mmHg 51%
    21:00 +11°C° 0 mm 3 mps 653 mmHg 56%
    22:00 +10°C° 0 mm 3 mps 653 mmHg 60%
    23:00 +10°C° 0.1 mm 2 mps 653 mmHg 59%
    Mostrar más